GFSSW_500_rhum_132.txt.gz
RH
1 2 2 3 4 5 4 6 8 10 9 7 6 5 5 4 4 5 5 3 3 3 3 3 4 8 15 34 63 44 76 74 59 40 32 30 22 17 19 43 43 95 39 33 34
2 2 2 2 5 5 6 6 7 8 9 9 8 5 5 5 4 4 5 4 4 3 3 3 4 5 11 42 62 98 96 92 85 98 86 32 23 23 16 35 27 47 33 34 37
4 3 3 5 7 8 10 9 8 9 8 7 8 6 4 5 5 4 4 4 4 4 3 3 3 4 25 38 59 96 87 96 82 99 86 40 32 20 14 22 31 96 33 33 37
4 6 7 7 5 7 8 10 10 10 9 8 7 6 5 5 5 5 5 4 5 5 4 3 3 4 28 50 85 40 50 94 92 96 72 89 34 21 92 37 28 44 38 30 34
2 3 6 7 9 8 7 6 7 7 7 6 5 5 4 4 4 4 4 4 5 5 5 4 4 5 23 82 40 70 67 97 80 56 92 34 35 92 31 11 22 36 28 28 31
3 2 3 4 7 8 8 7 6 5 5 5 4 4 3 4 5 4 4 4 4 5 5 6 5 94 26 29 33 72 57 63 84 80 75 98 45 62 16 9 23 32 26 25 24
3 3 4 5 6 7 9 9 9 8 7 3 3 3 3 3 4 4 4 4 4 5 5 6 14 45 6 29 97 16 68 58 62 97 38 71 66 20 22 10 20 29 24 21 22
5 5 5 5 5 8 10 10 10 10 8 5 3 3 3 3 3 3 3 3 4 4 5 6 8 7 5 61 98 24 32 68 92 98 88 69 94 36 21 10 12 31 28 21 22
7 7 6 7 7 12 12 11 10 10 8 6 4 4 4 4 4 3 3 3 3 3 4 6 7 8 6 35 52 84 38 80 82 82 86 82 85 75 85 20 9 16 31 24 19
8 7 6 6 11 15 16 12 9 7 5 4 5 4 4 4 4 3 3 3 3 3 4 4 7 9 12 67 71 96 100 98 96 49 86 84 87 79 65 65 15 9 24 24 26
9 8 6 7 13 20 14 8 5 5 4 4 4 4 4 3 3 3 3 3 3 3 4 5 6 10 95 98 53 94 88 96 97 72 76 67 60 98 87 37 35 10 10 23 20
8 11 6 12 13 21 12 6 5 5 5 5 5 4 4 4 3 3 3 4 4 5 5 7 8 44 94 88 86 81 96 78 97 60 34 43 35 86 96 78 30 42 9 13 21
8 10 11 8 17 20 13 7 5 4 7 6 6 5 4 4 3 3 3 3 3 6 8 16 71 34 47 66 45 67 86 86 65 80 40 55 73 35 46 79 96 51 33 11 16
9 8 12 8 14 23 13 8 6 7 8 7 7 6 5 4 3 3 3 3 4 6 9 12 60 89 49 61 89 69 52 58 49 76 60 63 96 86 85 73 98 75 56 22 11
11 10 9 13 11 23 20 10 8 15 78 12 8 8 6 5 4 4 4 6 7 13 15 36 88 40 43 28 43 92 63 80 58 100 26 42 81 82 94 56 96 74 46 54 21
11 12 11 11 15 15 22 14 12 41 93 12 8 7 7 5 4 4 4 6 10 16 21 38 37 29 24 84 34 56 63 68 82 49 29 35 80 54 85 85 88 55 70 76 29
9 11 12 10 14 15 18 20 18 68 46 45 44 20 70 35 7 5 6 11 18 36 46 59 38 26 22 30 24 24 31 92 87 95 93 73 78 72 87 97 91 94 92 80 24
12 11 12 13 10 15 18 14 17 93 51 14 8 9 99 37 53 11 11 59 40 30 84 78 74 73 34 23 49 87 99 92 93 93 97 88 62 98 87 93 98 96 88 77 32
10 12 12 13 12 9 14 17 60 86 54 24 21 40 96 49 20 22 54 90 89 33 71 91 86 85 75 54 27 86 96 85 97 95 89 91 75 96 86 91 76 75 78 70 51
7 8 11 12 13 12 10 21 23 19 18 13 38 86 95 94 66 90 99 63 60 10 23 81 94 92 96 69 29 64 88 94 88 87 97 81 63 92 77 70 98 88 79 84 78
6 7 7 10 12 13 13 18 51 26 18 17 36 69 54 95 67 98 100 85 33 11 11 34 47 98 74 68 64 84 29 54 93 99 95 81 93 91 96 88 80 75 53 80 88
8 8 7 9 11 13 14 27 34 35 26 20 18 20 60 86 50 43 90 100 24 11 9 77 81 90 98 86 83 66 79 38 46 73 95 96 64 98 95 93 85 76 59 60 98
14 9 8 10 10 12 17 82 26 33 36 27 23 23 31 28 45 79 99 78 13 9 11 19 60 95 92 89 75 80 73 76 49 72 86 98 65 90 94 80 60 75 62 71 81
58 15 13 10 12 13 25 92 90 38 37 75 46 33 24 22 20 22 81 67 28 7 8 11 21 74 97 97 83 88 74 71 48 93 85 77 78 91 85 77 85 70 62 59 62
66 42 18 20 13 17 20 35 98 97 78 58 40 33 29 38 83 94 70 39 52 26 7 9 9 24 91 93 82 60 77 56 73 85 80 74 67 64 95 96 83 92 87 53 76
63 71 66 19 18 16 17 19 44 95 100 94 66 68 44 38 44 79 90 66 47 68 38 8 25 64 33 66 89 100 84 95 54 52 95 85 75 56 64 93 74 76 78 97 87
46 54 76 66 28 25 19 29 92 91 91 100 100 99 74 100 90 41 49 42 32 26 17 15 24 41 78 98 97 76 98 100 99 90 95 98 55 61 89 95 73 76 79 76 85

GFSSW_500_rhum_138.txt.gz
RH
2 2 2 2 2 3 3 2 5 7 9 8 6 5 4 4 4 5 4 3 3 4 4 6 4 7 20 27 91 96 93 97 92 96 66 25 51 88 27 44 63 40 38 34 40
3 4 4 3 4 4 7 5 4 6 8 8 8 7 5 5 4 4 4 4 4 4 4 5 4 4 8 47 73 86 96 97 84 82 44 34 37 25 27 41 49 38 41 37 52
2 2 3 5 5 4 5 8 10 8 5 7 7 7 6 5 5 4 4 5 4 4 4 5 4 4 9 61 76 94 96 96 95 90 61 72 53 93 54 42 56 31 38 46 53
3 3 2 2 3 5 7 6 7 8 8 9 8 7 6 5 5 5 5 5 5 4 4 4 4 4 92 78 81 88 90 95 87 94 96 89 38 92 47 85 39 28 33 39 43
4 4 4 4 3 3 4 6 7 6 6 6 6 6 5 5 5 5 5 6 5 5 4 4 4 7 87 92 92 74 95 96 80 95 96 87 67 74 27 28 30 28 29 35 39
4 5 5 4 4 4 4 4 6 8 9 8 5 4 4 4 5 5 5 6 6 6 5 5 4 18 89 64 69 81 95 84 90 92 87 88 67 77 25 16 28 22 27 46 49
4 5 6 6 5 4 5 5 7 9 8 8 9 5 3 3 4 4 5 6 7 6 6 6 5 28 38 97 59 56 74 71 90 96 95 54 81 77 29 10 26 28 32 43 44
4 5 6 7 6 7 6 7 10 11 11 11 8 7 3 3 3 4 5 6 7 7 7 9 14 17 55 52 83 62 64 65 62 81 98 94 98 97 65 9 19 32 31 91 37
5 5 7 8 9 9 9 12 14 12 10 9 9 6 4 4 3 3 4 6 6 7 8 10 10 20 20 18 98 95 97 92 91 95 78 88 95 97 82 26 11 31 34 33 40
5 6 6 8 10 11 11 16 13 8 6 5 5 6 6 4 4 4 4 4 5 7 9 10 12 11 9 11 49 76 90 90 72 95 87 87 87 97 97 66 77 20 20 27 29
7 6 6 7 10 11 14 18 13 7 5 5 4 4 4 4 4 4 4 4 4 5 7 9 10 11 12 11 31 24 83 76 60 94 87 82 81 92 73 48 73 32 23 23 17
8 8 7 7 8 9 14 17 14 9 6 6 6 5 4 4 4 3 4 4 4 4 5 9 15 11 23 46 74 58 76 68 73 88 80 86 39 42 66 58 69 31 15 20 18
7 8 8 8 8 9 10 12 19 8 7 7 7 6 5 4 4 3 4 4 4 6 8 9 11 21 36 59 98 82 67 61 37 38 47 74 69 73 100 81 92 84 65 19 21
7 7 8 8 9 10 11 12 16 14 7 10 9 8 7 6 5 3 3 3 4 4 6 14 27 27 18 26 36 100 89 92 40 16 21 36 81 64 86 82 85 64 66 39 23
6 7 8 8 9 10 11 12 12 12 19 23 12 9 8 6 6 4 4 4 7 8 5 8 9 13 28 41 55 77 56 75 40 31 27 45 53 64 66 73 83 72 64 68 20
7 6 7 10 10 10 11 12 13 14 17 16 15 11 9 9 5 5 6 5 6 8 15 36 32 30 31 29 19 45 73 99 72 41 35 29 48 58 42 51 71 70 66 61 49
11 8 6 7 9 11 11 12 15 21 18 25 22 12 12 16 12 27 16 15 26 19 18 31 56 62 73 56 24 24 36 49 64 99 46 33 26 54 50 37 40 66 85 94 85
17 11 7 6 7 10 12 12 14 19 19 26 38 18 16 32 28 30 38 30 18 15 15 24 41 42 58 46 48 34 27 21 28 63 36 62 49 74 76 57 46 88 94 92 96
23 19 13 8 6 8 11 13 16 22 21 19 51 40 86 66 84 75 49 31 29 21 46 63 81 43 51 49 42 44 30 30 24 29 47 60 75 67 95 97 57 78 88 94 90
31 25 18 16 10 8 10 15 16 18 21 17 33 46 65 82 90 92 66 55 67 58 60 60 65 81 89 88 66 60 58 46 46 40 33 34 56 64 92 79 88 99 94 94 92
49 40 37 18 15 11 9 15 18 19 19 31 33 42 74 74 95 84 78 74 64 58 66 21 15 50 71 66 78 59 57 60 51 32 24 21 49 60 88 74 72 88 98 97 94
57 48 47 46 32 14 10 12 16 19 17 26 32 25 39 58 69 88 79 58 61 49 37 23 15 17 36 50 47 64 81 64 69 41 47 26 28 49 85 91 81 98 97 98 97
58 53 48 41 47 33 13 16 17 16 14 16 34 39 33 40 55 74 52 63 42 39 34 34 32 19 18 30 31 33 40 60 62 50 50 44 35 32 61 90 97 97 92 94 95
65 57 49 43 39 45 42 16 16 35 25 26 25 43 45 29 27 52 77 44 31 36 34 39 36 19 12 22 30 75 66 59 47 60 52 44 47 48 48 56 94 96 96 92 98
75 69 61 52 49 48 54 32 18 27 23 32 47 69 61 45 48 49 47 74 29 31 29 36 33 16 10 70 55 57 38 42 45 58 62 68 53 54 51 56 85 93 96 90 80
80 77 73 53 46 46 48 65 30 29 50 47 61 80 100 82 55 48 42 45 27 32 30 42 48 35 11 14 38 18 50 31 44 70 72 72 74 76 62 88 85 92 94 94 76
78 80 79 60 54 54 55 58 56 34 78 84 97 78 59 68 81 60 43 46 44 40 42 42 50 47 36 19 12 26 70 70 76 94 89 79 74 72 74 88 74 72 86 81 95

GFSSW_500_rhum_141.txt.gz
RH
2 2 2 2 3 4 3 2 6 9 10 8 6 6 4 4 5 5 4 4 4 3 3 3 4 9 47 34 53 91 86 96 97 92 68 39 45 27 46 61 48 34 39 46 48
2 3 4 4 3 4 6 5 4 8 10 9 8 7 6 5 4 5 5 4 4 4 3 4 4 4 7 57 72 83 90 97 98 80 54 33 18 31 57 62 37 38 41 61 69
3 2 2 3 5 6 6 7 9 8 6 8 8 7 7 6 6 6 6 5 4 4 3 3 3 4 10 59 88 87 97 96 88 95 66 62 56 89 56 42 40 35 54 61 75
4 4 4 4 3 3 5 7 7 8 8 9 8 8 7 6 7 6 6 6 5 4 4 3 3 10 78 87 71 90 94 95 93 92 92 62 75 67 74 68 43 33 46 62 84
4 4 4 4 4 4 4 4 6 8 6 6 6 6 6 6 6 7 7 6 6 5 4 4 4 8 95 80 80 93 96 96 94 96 82 96 49 41 44 47 37 30 45 54 66
4 4 5 5 4 4 4 4 5 8 8 9 6 4 4 5 6 6 7 7 7 6 5 5 5 6 61 47 71 89 80 90 99 96 93 98 83 52 33 58 31 26 63 56 54
4 4 5 5 5 6 6 6 7 9 10 9 8 9 4 4 6 6 7 8 8 7 7 6 6 11 55 76 62 62 89 83 84 82 91 62 91 84 25 22 28 23 64 64 57
4 4 5 5 6 6 7 8 12 12 12 11 10 7 6 4 4 6 6 7 8 8 8 8 8 11 14 80 69 67 99 79 67 78 78 88 98 90 74 18 27 22 87 49 46
6 5 4 5 6 7 7 10 13 11 8 7 8 9 4 4 4 4 6 9 9 9 9 8 8 20 25 25 72 83 98 92 68 81 80 83 98 96 76 56 12 25 26 38 34
8 7 6 5 5 6 8 10 13 10 7 5 5 6 6 5 4 4 5 8 10 12 11 10 12 30 18 14 53 99 96 90 78 67 90 85 90 92 85 96 84 51 25 25 52
8 8 8 7 6 7 7 10 14 10 6 6 5 4 5 6 5 5 5 6 8 10 12 12 11 9 10 12 16 51 44 76 67 82 84 87 85 95 86 67 68 72 36 16 28
8 8 8 8 8 7 8 10 16 12 7 7 7 5 4 4 4 5 5 5 7 7 11 12 12 12 14 14 19 21 53 60 59 75 94 77 69 56 92 79 96 69 13 25 20
7 7 7 7 7 8 9 10 13 15 12 8 8 6 5 4 4 5 5 5 6 9 10 15 13 15 17 10 28 31 55 30 26 51 47 78 90 88 97 92 85 58 52 26 25
8 6 6 7 8 8 9 10 11 15 17 10 15 10 6 7 7 4 4 6 8 8 6 8 12 16 10 33 36 30 57 28 20 21 28 65 82 79 88 93 78 85 90 72 15
14 12 9 7 6 8 9 9 10 13 19 22 23 15 8 8 7 6 4 4 7 12 11 10 14 20 38 25 27 77 54 40 21 36 26 41 54 82 75 76 83 80 84 82 38
18 16 13 10 7 7 10 10 9 12 16 22 18 12 15 11 7 5 7 7 8 14 17 25 48 34 61 52 23 33 46 26 26 53 41 44 39 74 65 69 76 83 85 79 88
17 17 18 15 9 7 10 11 10 10 14 19 18 14 20 21 11 8 14 18 16 25 32 43 48 40 47 42 30 23 24 25 21 18 17 25 19 45 74 90 95 48 50 82 67
36 28 24 22 16 7 8 11 12 11 12 16 18 18 15 32 21 24 38 44 29 40 44 58 68 57 75 74 52 34 24 34 26 18 16 13 16 38 43 81 93 54 45 91 83
45 44 41 32 22 13 8 10 13 14 16 15 23 24 24 27 40 58 60 62 59 28 45 40 49 50 58 49 51 49 37 36 31 25 25 26 43 68 56 62 92 77 47 82 91
47 48 54 44 30 17 11 10 13 14 14 15 29 30 54 43 50 67 80 64 36 42 61 74 82 76 70 55 65 58 68 60 52 35 21 22 28 37 50 63 88 97 73 91 95
44 47 53 50 46 34 14 11 18 14 15 16 20 30 24 44 62 71 73 55 51 61 76 77 40 54 50 54 62 70 59 37 50 48 44 21 21 17 31 47 79 96 97 97 95
45 43 50 53 51 48 27 11 14 15 12 16 20 27 24 46 60 56 62 59 49 49 53 44 25 26 48 55 48 45 52 48 42 44 53 39 37 35 21 39 46 82 94 92 88
46 42 56 58 56 49 49 21 14 18 16 17 18 34 34 29 66 51 54 62 63 43 30 39 43 43 38 26 18 25 34 33 31 30 54 47 40 34 29 19 35 72 73 91 99
43 46 51 60 59 53 46 53 21 18 28 16 22 52 40 29 41 68 66 71 57 58 42 30 39 40 36 38 17 15 18 23 37 36 43 48 40 37 39 37 33 50 76 95 96
40 52 54 52 64 66 54 52 40 27 36 31 38 45 44 40 42 45 46 45 59 52 32 27 28 38 44 34 24 16 20 51 56 51 37 38 50 43 56 68 60 46 88 96 96
41 52 64 70 69 73 73 57 82 56 33 52 63 64 44 38 48 58 58 51 47 40 30 28 34 47 49 42 28 15 15 17 25 41 49 49 53 60 67 59 78 64 72 94 93
37 46 64 79 78 79 74 55 68 88 75 60 69 67 63 52 38 52 47 48 37 39 34 37 40 40 46 54 43 31 22 14 19 27 68 61 68 88 84 73 96 74 75 85 94

GFSSW_500_rhum_144.txt.gz
RH
3 3 3 3 4 4 4 3 5 9 10 9 7 6 5 4 4 5 4 4 3 3 3 3 4 8 16 17 51 77 80 74 94 79 62 42 48 35 33 29 33 35 39 43 47
3 3 3 4 5 6 6 5 4 8 10 10 9 8 7 6 5 5 4 4 4 4 3 3 3 4 5 57 78 77 84 89 96 78 68 36 34 37 46 40 32 37 46 62 62
4 4 4 4 4 5 7 7 8 8 6 8 9 8 7 7 6 6 5 4 4 4 4 3 3 5 22 69 83 91 98 97 94 79 63 54 67 56 36 35 31 40 50 64 72
4 4 4 4 4 4 4 6 7 7 8 9 8 8 8 7 7 6 6 4 4 4 4 4 4 22 78 70 74 93 90 94 96 92 72 72 76 82 82 30 30 32 38 68 82
4 5 5 5 5 5 5 4 5 8 8 6 6 7 6 6 6 6 6 5 4 4 4 5 5 37 84 61 88 96 97 97 92 96 85 63 52 80 47 32 28 31 42 54 69
4 4 4 5 5 5 6 6 6 6 8 9 8 6 5 5 6 6 6 6 5 5 5 5 5 10 26 59 65 88 86 89 94 96 95 89 92 35 37 35 23 39 48 49 55
5 4 4 5 5 6 6 6 9 9 9 10 9 9 9 5 5 6 7 7 6 6 7 6 6 7 30 78 64 94 90 83 87 75 94 92 89 40 20 30 30 40 69 52 59
6 6 5 5 5 6 7 9 11 12 10 10 10 10 10 6 5 5 7 8 7 6 7 7 6 7 12 86 73 94 95 88 77 81 82 95 96 86 27 26 44 74 49 39 38
8 8 7 6 6 6 7 10 12 13 9 7 5 7 8 6 5 4 6 8 8 8 7 8 8 8 9 62 73 78 97 88 80 74 78 90 96 96 53 29 31 41 54 36 37
8 9 9 9 8 7 8 9 11 11 10 7 6 5 6 6 6 4 4 6 9 9 7 9 9 12 22 24 85 96 98 88 77 78 90 88 80 88 90 94 76 38 29 35 39
8 8 8 9 9 9 8 8 9 11 11 8 7 6 4 5 6 5 5 5 8 8 8 8 10 12 29 12 51 86 90 70 57 82 95 88 70 97 91 93 71 60 29 28 32
10 8 7 7 7 8 8 9 9 13 14 9 8 6 5 4 5 5 5 6 6 9 9 9 12 12 10 10 10 14 17 27 45 86 82 79 62 83 96 86 93 76 25 22 33
16 15 13 9 7 7 8 9 10 10 16 12 13 10 7 5 4 4 5 5 6 8 12 11 10 11 12 11 15 21 44 34 36 64 76 82 82 81 90 97 96 28 18 28 36
17 18 17 15 12 8 7 8 9 10 12 20 24 19 11 7 8 5 4 6 6 7 9 10 9 11 9 11 40 64 44 22 26 32 45 82 86 70 85 90 97 85 66 61 59
17 18 18 18 16 10 8 8 9 9 13 21 24 20 15 9 8 6 4 5 7 8 10 13 13 13 16 46 41 42 29 19 15 21 27 32 56 69 65 79 77 89 84 69 47
18 22 20 18 18 13 10 8 9 11 14 16 25 19 15 12 9 6 5 5 6 8 12 14 16 29 67 36 21 20 32 24 22 22 30 36 33 66 77 70 70 73 96 90 84
33 38 37 28 21 17 14 8 10 11 14 16 20 21 19 22 15 9 7 7 10 13 13 20 52 44 58 41 36 30 18 22 21 14 28 36 24 38 76 72 70 52 51 66 58
42 42 43 40 37 28 20 12 10 11 12 12 17 21 18 27 24 18 12 14 13 18 22 54 55 45 66 60 51 49 33 20 22 19 14 12 12 20 36 50 66 67 59 42 54
40 43 42 44 50 49 30 15 10 10 11 12 16 17 20 23 36 30 29 33 30 32 45 51 64 74 71 56 53 54 42 38 32 28 24 17 14 13 17 34 52 50 63 64 51
45 44 42 42 50 54 43 17 11 12 11 13 19 23 28 29 43 53 53 50 49 54 45 66 56 55 69 56 44 40 53 52 44 31 27 25 20 22 24 22 34 51 69 60 53
45 41 42 43 49 53 51 30 12 13 12 15 17 28 37 40 34 61 67 67 64 62 72 86 71 53 42 55 52 40 29 32 45 40 43 30 32 22 20 16 18 37 66 67 51
40 42 41 38 42 55 54 48 24 15 14 20 26 47 39 62 45 41 67 63 70 69 66 70 72 50 24 32 33 29 31 23 23 32 28 25 42 34 36 31 25 21 39 60 76
40 40 40 34 39 58 60 57 48 18 16 19 23 45 34 47 64 52 71 76 87 80 70 56 59 72 69 71 55 39 29 21 23 23 24 38 43 43 40 35 34 24 21 42 52
43 40 36 33 35 48 61 59 55 34 19 20 32 41 57 54 59 56 68 83 77 70 68 48 45 45 55 62 45 40 36 16 17 26 31 25 21 32 39 33 43 46 40 32 64
46 44 36 31 34 42 59 66 58 54 36 47 58 48 43 77 80 62 58 80 86 85 73 51 40 37 46 39 36 43 27 18 16 45 27 29 23 45 66 66 62 62 48 68 72
48 46 36 30 26 36 54 75 75 63 54 34 76 92 89 90 84 75 56 49 58 79 59 34 40 37 44 42 44 46 37 29 22 18 17 27 55 60 74 70 62 72 68 55 72
49 46 35 30 27 30 45 64 75 76 68 58 43 57 98 96 96 85 66 53 44 46 56 50 40 35 36 43 45 42 49 45 38 22 15 27 62 81 83 86 76 81 74 68 57

GFSSW_500_rhum_147.txt.gz
RH
2 3 3 4 4 4 3 2 3 6 9 9 7 7 6 5 4 4 5 4 4 3 3 3 4 7 18 37 58 74 87 71 82 74 50 28 34 33 25 26 33 35 35 39 43
4 4 4 4 4 5 4 4 3 4 6 10 9 8 8 7 6 5 4 5 4 4 4 3 4 4 12 62 89 81 76 82 80 76 30 24 36 32 29 26 33 37 55 58 53
4 4 4 4 4 4 5 6 6 6 7 6 8 9 8 7 7 6 5 5 5 4 4 4 4 8 65 78 78 79 93 95 98 63 50 35 64 43 19 27 32 45 53 56 65
4 4 4 4 4 4 4 4 5 7 7 8 8 7 8 8 7 7 6 5 5 5 4 5 5 39 77 68 94 99 94 96 86 67 70 62 78 69 26 24 30 39 44 54 63
4 4 4 4 5 4 5 5 5 5 6 8 7 6 7 6 7 7 6 6 5 5 6 5 6 74 67 70 77 92 97 92 93 77 58 51 40 68 28 24 33 41 41 50 52
6 5 4 4 5 5 5 5 6 6 7 7 8 10 9 6 6 6 6 6 6 6 6 5 5 29 35 49 84 91 93 84 96 92 81 64 43 62 36 23 42 47 45 53 64
8 7 6 6 5 5 5 6 7 9 10 10 10 9 8 8 7 5 6 6 6 7 7 6 5 7 29 55 90 92 81 80 79 96 97 96 58 31 30 26 32 47 41 56 69
9 9 9 8 8 7 6 6 7 9 11 9 7 6 9 9 7 6 4 6 6 7 8 7 6 6 21 62 76 95 88 76 81 84 88 96 99 33 34 38 47 40 32 36 59
8 8 9 9 10 9 8 8 7 8 10 11 7 5 5 7 7 5 4 5 6 7 9 8 8 8 9 53 63 73 88 77 75 74 77 95 96 39 28 38 31 45 30 34 47
10 9 8 8 8 9 10 10 9 8 11 10 7 6 6 6 6 6 5 4 5 7 9 9 9 10 12 44 68 94 93 88 69 73 85 91 92 82 83 89 53 31 32 31 37
13 13 13 11 8 7 7 8 9 9 9 12 8 8 6 5 5 6 5 5 5 6 10 10 12 13 12 28 78 96 94 80 62 61 94 94 90 98 98 97 98 64 27 28 32
14 14 15 16 14 11 9 7 8 9 9 11 10 12 9 6 4 5 6 6 6 8 9 12 15 13 10 18 18 66 60 31 23 58 80 83 79 97 98 100 99 87 48 23 29
13 15 17 18 17 15 11 10 8 8 9 10 12 14 15 9 6 4 5 5 6 8 12 14 12 11 12 11 14 16 23 30 36 37 84 79 72 87 86 96 98 76 32 22 30
15 14 15 17 18 17 16 11 10 9 10 11 12 14 16 13 9 8 4 5 6 8 9 11 10 13 12 21 27 30 48 37 24 32 56 76 85 82 96 99 88 40 25 23 32
30 26 23 28 24 19 16 14 10 10 13 14 13 11 14 16 12 8 5 4 7 8 10 14 11 14 14 26 31 45 32 27 20 19 26 43 58 60 71 94 100 92 89 59 68
38 34 35 38 38 29 21 17 12 12 12 16 15 16 14 15 12 9 7 5 6 9 11 12 20 19 37 52 38 29 25 22 16 13 34 28 30 39 34 63 76 90 95 94 80
41 40 39 40 41 39 33 25 18 12 15 17 20 19 16 17 16 13 9 6 7 9 12 11 23 35 52 75 44 23 18 20 46 20 33 42 45 43 48 50 59 61 68 76 94
49 44 39 40 41 48 46 46 32 16 12 14 18 21 20 20 20 19 13 9 7 10 12 17 26 51 76 49 48 49 40 33 25 20 15 12 11 14 22 39 58 55 57 59 57
47 47 44 42 39 42 47 55 36 18 13 11 15 21 25 24 25 23 18 19 16 16 16 27 56 65 61 59 58 61 43 34 27 23 20 21 15 13 13 15 26 27 32 48 55
45 47 43 43 40 38 43 56 47 24 16 12 14 20 33 31 30 37 35 33 38 38 31 45 66 61 60 63 50 48 49 42 41 36 27 22 27 30 16 13 14 18 24 33 36
41 40 43 42 40 36 42 56 55 33 21 15 14 20 26 37 43 41 54 59 64 60 58 45 46 52 66 62 52 54 46 34 30 26 28 17 25 27 25 14 18 18 12 28 59
42 42 41 42 40 33 33 52 56 51 28 20 17 19 37 40 42 50 49 62 73 66 56 68 72 77 53 27 28 31 29 22 22 24 21 18 16 21 36 33 27 29 22 16 50
40 39 44 43 41 34 32 45 58 60 49 30 23 21 30 50 55 59 60 60 59 80 83 87 75 70 78 70 75 58 48 42 32 19 21 23 21 20 24 37 33 27 27 17 16
40 41 43 44 42 36 33 38 54 65 60 38 24 26 37 60 66 67 73 69 63 56 76 73 67 68 71 68 58 52 42 38 35 23 23 26 23 20 15 26 30 22 34 22 14
43 43 43 44 44 39 33 37 53 63 65 53 31 26 34 72 92 85 76 74 76 70 67 76 72 71 53 50 40 35 33 39 32 19 24 27 19 21 21 20 38 37 40 43 28
53 51 53 51 52 42 33 38 47 64 72 65 52 32 29 38 98 94 91 89 82 79 86 88 84 71 53 45 44 31 29 40 42 34 29 25 18 22 28 35 51 56 54 58 47
56 56 57 55 54 49 37 33 42 72 81 78 68 54 36 53 80 98 88 90 86 81 78 75 62 54 52 44 41 34 40 37 40 44 43 33 20 22 39 42 55 66 64 66 61